AEE378 LGAV-LGMK

Flight info

Callsign AEE378
Flight time 0h 19m
Altitude 11000
Route KEA L995 VARIX
Aircraft A20N/M-SDE2E3FGHIRWXY/LB1

Departure

Time 2026-05-08 17:10
Airport Athens Eleftherios Venizelos International Airport (LGAV)

Arrival

Time 2026-05-08 17:29
Airport Mykonos Island National Airport (LGMK)
Time Latitude Longitude Altitude Speed Heading
2026-05-08 16:42 37.93747 23.94975 300 ft 0 kts 306°
2026-05-08 17:00 37.93744 23.94981 300 ft 2 kts 305°
2026-05-08 17:01 37.93734 23.94998 277 ft 2 kts 306°
2026-05-08 17:01 37.93724 23.95015 305 ft 2 kts 307°
2026-05-08 17:01 37.93714 23.95031 303 ft 2 kts 309°
2026-05-08 17:01 37.93704 23.95047 301 ft 2 kts 327°
2026-05-08 17:02 37.93689 23.95046 301 ft 2 kts 44°
2026-05-08 17:02 37.93680 23.95037 300 ft 0 kts 36°
2026-05-08 17:03 37.93690 23.95046 303 ft 6 kts 36°
2026-05-08 17:04 37.93699 23.95143 302 ft 17 kts 106°
2026-05-08 17:04 37.93645 23.95272 297 ft 15 kts 70°
2026-05-08 17:04 37.93728 23.95356 298 ft 17 kts 36°
2026-05-08 17:04 37.93833 23.95453 297 ft 20 kts 36°
2026-05-08 17:05 37.93953 23.95563 299 ft 22 kts 35°
2026-05-08 17:05 37.94083 23.95689 299 ft 25 kts 39°
2026-05-08 17:05 37.94224 23.95826 300 ft 26 kts 35°
2026-05-08 17:05 37.94375 23.95969 299 ft 28 kts 37°
2026-05-08 17:06 37.94537 23.96120 298 ft 29 kts 37°
2026-05-08 17:06 37.94703 23.96282 299 ft 31 kts 37°
2026-05-08 17:06 37.94878 23.96444 302 ft 32 kts 36°
2026-05-08 17:06 37.95053 23.96612 302 ft 25 kts 36°
2026-05-08 17:07 37.95192 23.96741 303 ft 25 kts 37°
2026-05-08 17:07 37.95302 23.96871 303 ft 13 kts 84°
2026-05-08 17:07 37.95281 23.96926 304 ft 0 kts 127°
2026-05-08 17:08 37.95276 23.96936 304 ft 4 kts 127°
2026-05-08 17:08 37.95242 23.96991 308 ft 11 kts 127°
2026-05-08 17:09 37.95198 23.97029 312 ft 2 kts 205°
2026-05-08 17:09 37.95191 23.97022 309 ft 0 kts 216°
2026-05-08 17:09 37.95190 23.97022 309 ft 1 kts 216°
2026-05-08 17:09 37.95128 23.96964 309 ft 33 kts 216°
2026-05-08 17:10 37.94750 23.96603 303 ft 100 kts 217°
2026-05-08 17:10 37.94049 23.95941 282 ft 149 kts 217°
2026-05-08 17:10 37.93168 23.95123 734 ft 153 kts 215°
2026-05-08 17:10 37.92277 23.94399 1297 ft 155 kts 210°
2026-05-08 17:11 37.91349 23.93716 1973 ft 152 kts 209°
2026-05-08 17:11 37.90390 23.93052 2457 ft 165 kts 209°
2026-05-08 17:11 37.89317 23.92329 2832 ft 185 kts 208°
2026-05-08 17:11 37.88594 23.91845 3060 ft 199 kts 208°
2026-05-08 17:12 37.87290 23.90974 3479 ft 224 kts 208°
2026-05-08 17:12 37.85845 23.90002 4106 ft 243 kts 208°
2026-05-08 17:12 37.84189 23.89333 4816 ft 260 kts 183°
2026-05-08 17:12 37.82433 23.89785 5875 ft 262 kts 155°
2026-05-08 17:13 37.81025 23.91221 6791 ft 270 kts 128°
2026-05-08 17:13 37.80121 23.93332 7685 ft 277 kts 113°
2026-05-08 17:13 37.79434 23.95638 8602 ft 283 kts 111°
2026-05-08 17:13 37.78725 23.97974 9523 ft 287 kts 113°
2026-05-08 17:14 37.77933 24.00302 10353 ft 292 kts 115°
2026-05-08 17:14 37.77055 24.02659 11157 ft 297 kts 117°
2026-05-08 17:14 37.76128 24.05030 11946 ft 304 kts 117°
2026-05-08 17:14 37.75153 24.07481 12455 ft 323 kts 118°
2026-05-08 17:15 37.74100 24.10108 12721 ft 347 kts 118°
2026-05-08 17:15 37.72975 24.12919 12978 ft 369 kts 117°
2026-05-08 17:15 37.71808 24.15841 13061 ft 373 kts 117°
2026-05-08 17:15 37.70659 24.18722 13066 ft 372 kts 117°
2026-05-08 17:16 37.69496 24.21635 13064 ft 372 kts 117°
2026-05-08 17:16 37.68332 24.24549 13066 ft 372 kts 117°
2026-05-08 17:16 37.67165 24.27465 13065 ft 372 kts 117°
2026-05-08 17:16 37.65997 24.30380 13065 ft 372 kts 117°
2026-05-08 17:17 37.64829 24.33292 13062 ft 373 kts 118°
2026-05-08 17:17 37.63658 24.36208 13064 ft 372 kts 118°
2026-05-08 17:17 37.62490 24.39115 13065 ft 371 kts 118°
2026-05-08 17:17 37.61320 24.42023 13069 ft 373 kts 118°
2026-05-08 17:18 37.60150 24.44932 12954 ft 370 kts 118°
2026-05-08 17:18 37.58987 24.47818 12620 ft 368 kts 118°
2026-05-08 17:18 37.57850 24.50641 12161 ft 365 kts 118°
2026-05-08 17:18 37.56703 24.53482 11682 ft 362 kts 118°
2026-05-08 17:19 37.55565 24.56299 11213 ft 359 kts 118°
2026-05-08 17:19 37.54438 24.59086 10756 ft 355 kts 118°
2026-05-08 17:19 37.53323 24.61844 10445 ft 348 kts 118°
2026-05-08 17:19 37.52248 24.64499 10315 ft 334 kts 118°
2026-05-08 17:20 37.51213 24.67055 10199 ft 321 kts 118°
2026-05-08 17:20 37.50213 24.69522 9918 ft 315 kts 118°
2026-05-08 17:20 37.49218 24.71973 9489 ft 313 kts 118°
2026-05-08 17:20 37.48231 24.74402 9084 ft 311 kts 118°
2026-05-08 17:21 37.47258 24.76797 8869 ft 301 kts 118°
2026-05-08 17:21 37.46327 24.79086 8577 ft 296 kts 118°
2026-05-08 17:21 37.45393 24.81380 8204 ft 294 kts 118°
2026-05-08 17:21 37.44465 24.83658 7832 ft 292 kts 118°
2026-05-08 17:22 37.43531 24.85949 7278 ft 297 kts 118°
2026-05-08 17:22 37.42588 24.88261 6813 ft 298 kts 119°
2026-05-08 17:22 37.41631 24.90604 6214 ft 303 kts 119°
2026-05-08 17:22 37.40654 24.92995 5523 ft 311 kts 119°
2026-05-08 17:23 37.39669 24.95404 5147 ft 306 kts 119°
2026-05-08 17:23 37.38727 24.97748 5020 ft 293 kts 115°
2026-05-08 17:23 37.38338 25.00168 4909 ft 284 kts 90°
2026-05-08 17:23 37.38681 25.02569 4630 ft 280 kts 75°
2026-05-08 17:24 37.39370 25.04870 4263 ft 279 kts 66°
2026-05-08 17:24 37.40208 25.07068 3890 ft 278 kts 65°
2026-05-08 17:24 37.41055 25.09257 3496 ft 278 kts 64°
2026-05-08 17:24 37.41905 25.11450 3122 ft 278 kts 65°
2026-05-08 17:25 37.42742 25.13626 2817 ft 275 kts 65°
2026-05-08 17:25 37.43574 25.15786 2425 ft 275 kts 65°
2026-05-08 17:25 37.44398 25.17915 2285 ft 265 kts 65°
2026-05-08 17:25 37.45192 25.19953 2186 ft 253 kts 65°
2026-05-08 17:26 37.45943 25.21875 2093 ft 242 kts 65°
2026-05-08 17:26 37.46670 25.23724 2008 ft 229 kts 65°
2026-05-08 17:26 37.47360 25.25458 2000 ft 214 kts 65°
2026-05-08 17:26 37.47998 25.27056 1973 ft 195 kts 65°
2026-05-08 17:27 37.48598 25.28513 1765 ft 181 kts 64°
2026-05-08 17:27 37.49045 25.29910 1575 ft 162 kts 82°
2026-05-08 17:27 37.48937 25.31187 1431 ft 139 kts 120°
2026-05-08 17:27 37.48332 25.32111 1306 ft 135 kts 140°
2026-05-08 17:28 37.47619 25.32871 1144 ft 134 kts 149°
2026-05-08 17:28 37.46783 25.33361 968 ft 131 kts 163°
2026-05-08 17:28 37.46641 25.33419 942 ft 131 kts 162°
2026-05-08 17:28 37.46035 25.33688 842 ft 132 kts 159°
2026-05-08 17:29 37.45176 25.34078 656 ft 131 kts 163°
2026-05-08 17:29 37.44338 25.34455 429 ft 128 kts 161°
2026-05-08 17:29 37.43598 25.34785 411 ft 79 kts 160°
2026-05-08 17:29 37.43384 25.34877 411 ft 3 kts 229°
2026-05-08 17:30 37.43398 25.34825 407 ft 12 kts 290°
2026-05-08 17:30 37.43417 25.34772 408 ft 5 kts 298°
2026-05-08 17:30 37.43454 25.34733 407 ft 9 kts 336°
2026-05-08 17:30 37.43527 25.34702 407 ft 13 kts 342°
2026-05-08 17:31 37.43555 25.34678 407 ft 3 kts 279°
2026-05-08 17:31 37.43543 25.34629 407 ft 2 kts 251°